Tracking 27107 objects as of 20-Mar-2023
HD Live streaming from Space Station
objects crossing your sky now

MMSATS-1

Track MMSATS-1 now!
10-day predictions


NORAD ID: 47976
Int'l Code: 1998-067SJ
Perigee: 264.5 km
Apogee: 269.8 km
Inclination: 51.6 °
Period: 89.7 minutes
Semi major axis: 6638 km
RCS: Unknown
Launch date: November 20, 1998
Source: (MMR)
Launch site: TYURATAM MISSILE AND SPACE COMPLEX (TTMTR)
Your satellite tracking list
Your tracking list is empty




NASA's NSSDC Master Catalog

Two Line Element Set (TLE):
1 47976U 98067SJ  23079.26883547  .00557534  15902-3  78202-3 0  9998
2 47976  51.6295 355.9117 0003971 173.0154 326.1157 16.05205516113602
Source of the keplerian elements: AFSPC